TimeCDT,TemperatureF,Dew PointF,Humidity,Sea Level PressureIn,VisibilityMPH,Wind Direction,Wind SpeedMPH,Gust SpeedMPH,PrecipitationIn,Events,Conditions,WindDirDegrees,DateUTC
12:53 AM,46.9,35.1,63,29.84,10.0,Calm,Calm,-,N/A,,Clear,0,2012-10-09 05:53:00
1:53 AM,43.0,35.1,74,29.85,10.0,NW,4.6,-,N/A,,Clear,310,2012-10-09 06:53:00
2:53 AM,41.0,33.8,76,29.86,10.0,Calm,Calm,-,N/A,,Clear,0,2012-10-09 07:53:00
3:53 AM,39.0,34.0,82,29.85,10.0,NNW,8.1,-,N/A,,Clear,330,2012-10-09 08:53:00
4:53 AM,42.1,37.0,82,29.86,10.0,NW,4.6,-,N/A,,Clear,310,2012-10-09 09:53:00
5:53 AM,48.9,41.0,74,29.86,10.0,North,11.5,-,N/A,,Clear,350,2012-10-09 10:53:00
6:53 AM,48.9,39.9,71,29.91,10.0,North,12.7,21.9,N/A,,Clear,350,2012-10-09 11:53:00
7:53 AM,46.9,39.0,74,29.95,10.0,NNW,16.1,23.0,N/A,,Partly Cloudy,340,2012-10-09 12:53:00
8:53 AM,46.9,37.9,71,29.99,10.0,North,17.3,24.2,N/A,,Partly Cloudy,350,2012-10-09 13:53:00
9:06 AM,46.4,37.4,71,29.98,10.0,NNW,19.6,27.6,N/A,,Mostly Cloudy,340,2012-10-09 14:06:00
9:53 AM,46.0,32.0,58,30.03,10.0,North,21.9,33.4,N/A,,Overcast,350,2012-10-09 14:53:00
10:53 AM,46.0,28.9,51,30.06,10.0,NNW,16.1,-,N/A,,Scattered Clouds,340,2012-10-09 15:53:00
11:53 AM,48.9,21.0,33,30.05,10.0,NNW,18.4,25.3,N/A,,Scattered Clouds,340,2012-10-09 16:53:00
12:53 PM,50.0,21.9,33,30.05,10.0,NNW,19.6,23.0,N/A,,Mostly Cloudy,330,2012-10-09 17:53:00
1:53 PM,54.0,21.9,29,30.04,10.0,NW,18.4,26.5,N/A,,Clear,320,2012-10-09 18:53:00
2:53 PM,55.9,23.0,28,30.04,10.0,NW,19.6,-,N/A,,Clear,320,2012-10-09 19:53:00
3:53 PM,57.0,23.0,27,30.06,10.0,North,18.4,29.9,N/A,,Partly Cloudy,350,2012-10-09 20:53:00
4:53 PM,55.0,23.0,29,30.06,9.0,NNW,16.1,24.2,N/A,,Partly Cloudy,330,2012-10-09 21:53:00
5:53 PM,53.1,24.1,32,30.06,10.0,NNW,12.7,-,N/A,,Partly Cloudy,330,2012-10-09 22:53:00
6:53 PM,48.9,24.1,38,30.09,10.0,NW,8.1,-,N/A,,Partly Cloudy,320,2012-10-09 23:53:00
7:53 PM,44.1,21.9,42,30.13,10.0,NNW,8.1,-,N/A,,Clear,330,2012-10-10 00:53:00
8:53 PM,41.0,23.0,49,30.16,10.0,West,3.5,-,N/A,,Mostly Cloudy,280,2012-10-10 01:53:00
9:53 PM,41.0,25.0,53,30.18,10.0,NW,3.5,-,N/A,,Overcast,310,2012-10-10 02:53:00
10:53 PM,37.0,24.1,59,30.20,10.0,NW,5.8,-,N/A,,Clear,310,2012-10-10 03:53:00
11:53 PM,30.0,21.9,72,30.21,10.0,NW,5.8,-,N/A,,Clear,310,2012-10-10 04:53:00